Regional Weather Roundup
Issued by NWS

Home | Current Version | Previous Version | Graphics & Text | Print | Product List | Glossary On
Versions: 1 2 3 4 5 6 7 8 9 10 11 12 13 14 15 16 17 18 19 20 21 22 23 24 25 26 27 28 29 30 31 32 33 34 35 36 37 38 39 40 41 42 43 44 45 46 47 48 49 50
000
ASUS43 KLOT 241109
RWRIL

ILLINOIS REGIONAL WEATHER ROUNDUP
NATIONAL WEATHER SERVICE CHICAGO/ROMEOVILLE IL
600 AM CDT WED MAY 24 2017

NOTE: "FAIR" INDICATES FEW OR NO CLOUDS BELOW 12,000 FEET WITH NO
SIGNIFICANT WEATHER AND/OR OBSTRUCTIONS TO VISIBILITY.

* THESE STATIONS ARE NOT UNDER NWS QUALITY CONTROL. THEY ALSO MAY NOT
  REPORT WEATHER SUCH AS PRECIPITATION OR FOG.

ILZ001-002-007-009-015-016-024-241200-
NORTHWEST ILLINOIS

CITY           SKY/WX    TMP DP  RH WIND       PRES   REMARKS
MOLINE         CLOUDY    50  47  89 CALM      29.62S
STERLING*      CLOUDY    50  50 100 N5        29.62S FOG
SAVANNA*       CLOUDY    51  51  99 CALM      29.63S FOG
$$

ILZ003-004-008-010-011-017-018-241200-
NORTH CENTRAL ILLINOIS

CITY           SKY/WX    TMP DP  RH WIND       PRES   REMARKS
ROCKFORD       DRIZZLE   54  52  93 N9        29.64S FOG
FREEPORT*      CLOUDY    50  50  99 N3        29.65R
ROCHELLE*      CLOUDY    51  51  99 N6        29.61S FOG
DE KALB*       CLOUDY    54  53  97 NE7       29.61S FOG
PERU*          CLOUDY    51  50  95 N5        29.61S FOG
$$

ILZ005-006-012>014-019>023-241200-
NORTHEAST ILLINOIS

CITY           SKY/WX    TMP DP  RH WIND       PRES   REMARKS
CHICAGO-OHARE  LGT RAIN  54  52  93 NE10      29.59F FOG
CHICAGO-MIDWAY LGT RAIN  55  54  96 N10       29.58F FOG
AURORA         CLOUDY    55  53  93 N9        29.60S
LANSING*       CLOUDY    54  54 100 N9G17     29.58S FOG
JOLIET*        CLOUDY    56  55  97 NE7       29.58S FOG
WAUKEGAN       LGT RAIN  51  50  96 NE7       29.61S
DUPAGE AIRPORT CLOUDY    53  53 100 NE13      29.58F
KANKAKEE*      CLOUDY    56  55  97 CALM      29.57S FOG
WHEELING       LGT RAIN  52  52 100 NE8       29.62S
MORRIS*        CLOUDY    55  54  95 CALM      29.58S FOG
ROMEOVILLE*    CLOUDY    54  54 100 NE13      29.57F
NORTHERLY ISL    N/A     53  51  93 NW10        N/A
$$

LMZ740>746-241200-
SOUTHERN LAKE MICHIGAN

STATION/POSITION SKY/WX   TEMP    WIND        PRES    VSBY  WAVE
                          AIR SEA DIR/SP/G                  HT/PER
                          (F)     (DEG/KT/KT) (MB)    (MI)  (FT/S)
SOUTHERN BUOY              47 45  360/ 14/ 16 1003.1          1
WILMETTE HARBOR            49 53                N/A           2/ 3
HARRISON CRIB              52     340/ 17/ 19   N/A
BURNHAM HARBOR             53     340/ 13/ 14   N/A
CALUMET HARBOR             53     330/  9/ 13 1001.5F
BURNS HARBOR               51      20/ 13/ 16 1002.4S
MICHIGAN CITY              51     340/ 18/ 19   N/A
MICHIGAN CITY 6N           51 53   10/ 14/ 17   N/A           2/ 3
ST. JOSEPH                 55 58   20/ 10/ 10 1001.8          1/ 3
$$

ILZ025>027-034>036-040-047-049-050-058-095>099-241200-
WEST-CENTRAL ILLINOIS

CITY           SKY/WX    TMP DP  RH WIND       PRES   REMARKS
QUINCY         CLEAR     47  46  97 NW7       29.62F
GALESBURG*     CLOUDY    49  48  95 NW3       29.60F
MACOMB*        CLOUDY    47  47  97 NW5       29.63F
JACKSONVILLE*  CLEAR     47  47  97 W5        29.61S
PITTSFIELD*    CLEAR     49  48  95 W6        29.63S
$$

ILZ028>032-037-038-041>044-048-051>054-059>061-241200-
CENTRAL ILLINOIS

CITY           SKY/WX    TMP DP  RH WIND       PRES   REMARKS
PONTIAC        FOG       54  54  99 NW6       29.59F VSB 1/2
BLOOMINGTON    FOG       51  50  96 N3        29.60S VSB 1/8
DECATUR        CLOUDY    53  53 100 NW10      29.59R FOG
PEORIA         CLOUDY    51  51 100 N3        29.60S FOG
LACON*         CLOUDY    54  54 100 N3        29.60R FOG
LINCOLN*       CLOUDY    55  55 100 CALM      29.59S FOG
SPRINGFIELD    CLEAR     52  51  97 NW8       29.60S
TAYLORVILLE    PTCLDY    52  52  99 W5        29.59S FOG
$$

ILZ033-039-045-046-055>057-062-063-241200-
EAST-CENTRAL ILLINOIS

CITY           SKY/WX    TMP DP  RH WIND       PRES   REMARKS
CHAMPAIGN      CLOUDY    57  54  89 NW6       29.57S
RANTOUL*       RAIN      57  56  97 N3        29.56S
MATTOON        CLOUDY    57  57 100 NW8       29.56S
PARIS*         CLOUDY    56  55  99 N5        29.56F
$$

ILZ079-100>102-241200-
SOUTHWEST ILLINOIS

CITY           SKY/WX    TMP DP  RH WIND       PRES   REMARKS
ALTON          PTCLDY    50  48  93 W7        29.61F
BELLEVILLE     CLOUDY    51  49  93 NW3       29.61S
CAHOKIA*       PTCLDY    53  49  86 W7        29.61S
SPARTA*        CLOUDY    54  52  95 W5        29.61S
$$

ILZ064>066-069>071-074>076-080>082-084>086-088>090-092>094-241200-
SOUTH-CENTRAL ILLINOIS

CITY           SKY/WX    TMP DP  RH WIND       PRES   REMARKS
CARBONDALE     NOT AVBL
CAIRO*         DRIZZLE   58  56  95 NW5       29.57F
EFFINGHAM*     CLOUDY    57  57 100 NW5       29.58F FOG
MARION         CLOUDY    57  57 100 CALM      29.59S
CENTRALIA*     CLOUDY    56  55  95 NW6       29.58S
SALEM*         CLOUDY    57  54  89 NW7       29.58F
METROPOLIS*    RAIN      57  55  92 NW5       29.57F
$$

ILZ067-068-072-073-078-083-087-091-241200-
SOUTHEAST ILLINOIS

CITY           SKY/WX    TMP DP  RH WIND       PRES   REMARKS
LAWRENCEVILLE  LGT RAIN  59  56  89 NW8       29.56S
FLORA*         RAIN      58  56  92 NW6       29.57S
FAIRFIELD*     LGT RAIN  57  56  98 CALM      29.56S
HARRISBURG*    LGT RAIN  57  55  95 CALM      29.57F
ROBINSON*      CLOUDY    57  56  95 NW5       29.56S
CARMI*         LGT RAIN  57  56  97 NW7       29.56S
$$

ABBREVIATIONS USED IN REMARKS
   TC - TEMPERATURE IN CELSIUS
  WCI - WIND CHILL INDEX
   HX - HEAT INDEX
  VSB - VISIBILITY
$$




USA.gov is the U.S. government's official web portal to all federal, state and local government web resources and services.